This is the latest recevied weather packets stored in our database for station/object DC0VZ-6. If no packets are shown the sender has not sent any weather packets the latest 10 day(s).
| Time | Temp. | Humidity | Pressure | Rain* | Wind** | Luminosity | Snow |
|---|---|---|---|---|---|---|---|
| 1777616772 | 10.56° C | 5% | 993.2 hPa | 0 mm | - | - | - |
| 1777616172 | 10.56° C | 5% | 993.2 hPa | 0 mm | - | - | - |
| 1777615572 | 10° C | 7% | 993.2 hPa | 0 mm | - | - | - |
| 1777614972 | 8.89° C | 8% | 993 hPa | 0 mm | - | - | - |
| 1777614372 | 8.89° C | 8% | 993 hPa | 0 mm | - | - | - |
| 1777613771 | 8.33° C | 8% | 992.8 hPa | 0 mm | - | - | - |
| 1777613171 | 7.78° C | 8% | 992.8 hPa | 0 mm | - | - | - |
| 1777612571 | 7.22° C | 8% | 992.7 hPa | 0 mm | - | - | - |
| 1777611371 | 6.67° C | 9% | 992.7 hPa | 0 mm | - | - | - |
| 1777610771 | 6.67° C | 9% | 992.7 hPa | 0 mm | - | - | - |
| 1777610171 | 5.56° C | 10% | 992.7 hPa | 0 mm | - | - | - |
| 1777609571 | 5° C | 10% | 992.7 hPa | 0 mm | - | - | - |
| 1777608971 | 4.44° C | 10% | 992.5 hPa | 0 mm | - | - | - |
| 1777608371 | 3.89° C | 11% | 992.5 hPa | 0 mm | - | - | - |
| 1777607771 | 3.89° C | 11% | 992.8 hPa | 0 mm | - | - | - |
| 1777607171 | 3.89° C | 11% | 992.8 hPa | 0 mm | - | - | - |
| 1777606570 | 3.33° C | 11% | 992.7 hPa | 0 mm | - | - | - |
| 1777605970 | 3.33° C | 11% | 992.7 hPa | 0 mm | - | - | - |
| 1777605370 | 3.33° C | 11% | 992.6 hPa | 0 mm | - | - | - |
| 1777604770 | 4.44° C | 10% | 992.6 hPa | 0 mm | - | - | - |
| 1777604170 | 4.44° C | 10% | 992.7 hPa | 0 mm | - | - | - |
| 1777603570 | 5° C | 10% | 992.7 hPa | 0 mm | - | - | - |
| 1777602970 | 5.56° C | 10% | 992.6 hPa | 0 mm | - | - | - |
| 1777602370 | 6.67° C | 9% | 992.6 hPa | 0 mm | - | - | - |
| 1777601770 | 7.78° C | 8% | 992.5 hPa | 0 mm | - | - | - |
* Rain latest hour (hover to see other rain measurements)
** Current wind speed in m/s (hover to see current wind gust speed)